Wednesday, April 25, 2018, 8:08 AM EDT
Back to Local

KFIG, Clearfield-lawrence Airport

Location: Clearfield, PA, United States Lat: 41.05
Local Time: 8:08 AM EDT (12:08 GMT) Lon: -78.417
Time Zone: US/Eastern Elev: 1515 ft

Show me the last for .
Show Decoded

2018-04-25 07:54 METAR KFIG 251154Z AUTO 05005KT 3SM BR OVC003 09/09 A2986 RMK AO2 SLP114 60000
                 70028 T00940089 10094 20089 56009 =
2018-04-25 07:32 METAR KFIG 251132Z AUTO 04004KT 2 1/2SM BR OVC003 09/09 A2986 RMK AO2 T00890089
                 =
2018-04-25 06:54 METAR KFIG 251054Z AUTO 06005KT 3SM BR OVC003 09/08 A2987 RMK AO2 SLP117
                 T00890083 =
2018-04-25 05:54 METAR KFIG 250954Z AUTO 05005KT 6SM BR OVC003 09/08 A2987 RMK AO2 SLP118
                 T00890083 =
2018-04-25 04:54 METAR KFIG 250854Z AUTO VRB05KT 5SM BR OVC003 09/08 A2989 RMK AO2 SLP124 60000
                 T00890083 56023 =
2018-04-25 03:54 METAR KFIG 250754Z AUTO 05006KT 6SM BR OVC003 09/08 A2991 RMK AO2 SLP131
                 T00890083 =
2018-04-25 03:04 METAR KFIG 250704Z AUTO 05006KT 5SM BR BKN004 OVC012 09/08 A2992 RMK AO2 CIG
                 002V006 T00890083 =
2018-04-25 02:54 METAR KFIG 250654Z AUTO 05005KT 4SM BR SCT006 OVC012 09/08 A2993 RMK AO2 RAE07
                 SLP136 P0000 T00890083 =
2018-04-25 01:54 METAR KFIG 250554Z AUTO 04005KT 10SM -RA FEW006 OVC012 09/08 A2996 RMK AO2
                 SLP148 P0001 60012 T00890083 10094 20089 56026 =
2018-04-25 00:54 METAR KFIG 250454Z AUTO 05007KT 8SM -RA FEW005 OVC013 09/08 A2999 RMK AO2 SLP158
                 P0001 T00890083 401220078 =
2018-04-25 00:30 METAR KFIG 250430Z AUTO 04007KT 8SM -RA FEW004 OVC013 09/08 A3000 RMK AO2 P0001
                 T00890083 =
2018-04-25 00:11 METAR KFIG 250411Z AUTO 05005KT 9SM -RA FEW005 FEW009 OVC017 09/08 A3000 RMK AO2
                 P0000 T00890083 =
2018-04-24 23:54 METAR KFIG 250354Z AUTO 05005KT 9SM -RA BKN018 OVC024 09/08 A3001 RMK AO2 SLP166
                 P0001 T00890083 =
2018-04-24 23:35 METAR KFIG 250335Z AUTO 04005KT 8SM -RA FEW018 BKN025 OVC065 09/08 A3002 RMK AO2
                 P0001 T00890083 =
2018-04-24 22:54 METAR KFIG 250254Z AUTO 07009KT 8SM -RA FEW018 BKN070 OVC085 09/08 A3004 RMK AO2
                 SLP176 P0003 60009 T00890083 58010 =
2018-04-24 21:54 METAR KFIG 250154Z AUTO 06007KT 8SM -RA BKN022 BKN032 OVC050 09/08 A3007 RMK AO2
                 SLP186 P0004 T00940083 =
2018-04-24 20:54 METAR KFIG 250054Z AUTO 07006KT 8SM -RA OVC060 09/08 A3008 RMK AO2 SLP189 P0002
                 T00940083 =
2018-04-24 19:54 METAR KFIG 242354Z AUTO 09005KT 7SM -RA BKN046 OVC060 10/08 A3007 RMK AO2 SLP188
                 P0002 60014 T01000083 10122 20100 58006 =
2018-04-24 18:54 METAR KFIG 242254Z AUTO 10004KT 10SM -RA SCT047 OVC055 11/09 A3008 RMK AO2
                 SLP191 P0003 T01060089 =
2018-04-24 17:54 METAR KFIG 242154Z AUTO VRB03KT 9SM -RA SCT047 BKN055 OVC070 11/09 A3009 RMK AO2
                 SLP194 P0002 T01110089 =
2018-04-24 16:54 METAR KFIG 242054Z AUTO 06004KT 7SM -RA SCT049 OVC060 11/09 A3009 RMK AO2 SLP193
                 P0004 60007 T01110094 58026 =
2018-04-24 15:54 METAR KFIG 241954Z AUTO 08004KT 7SM -RA SCT038 BKN047 OVC060 11/08 A3012 RMK AO2
                 SLP204 P0002 T01110083 =
2018-04-24 14:54 METAR KFIG 241854Z AUTO 15007KT 10SM -RA OVC036 12/07 A3015 RMK AO2 SLP213 P0001
                 T01170072 =
2018-04-24 13:54 METAR KFIG 241754Z AUTO VRB05G15KT 10SM -RA BKN034 OVC055 12/07 A3017 RMK AO2
                 SLP220 P0001 60002 T01170067 10122 20089 58018 =
2018-04-24 12:54 METAR KFIG 241654Z AUTO 15004KT 10SM -RA BKN033 BKN050 OVC060 11/07 A3020 RMK
                 AO2 RAB09 SLP230 P0001 T01110067 =
2018-04-24 11:54 METAR KFIG 241554Z AUTO 14006KT 10SM BKN032 OVC070 12/04 A3022 RMK AO2 RAB04E13
                 SLP235 P0000 T01220044 =
2018-04-24 10:54 METAR KFIG 241454Z AUTO VRB04KT 10SM BKN030 OVC039 12/03 A3023 RMK AO2 SLP238
                 T01170033 58011 =
2018-04-24 09:54 METAR KFIG 241354Z AUTO VRB05KT 10SM OVC033 11/03 A3024 RMK AO2 SLP243 T01110028
                 =
2018-04-24 08:54 METAR KFIG 241254Z AUTO 10007KT 10SM BKN035 OVC110 11/01 A3026 RMK AO2 SLP247
                 T01060006 =

Support USWX by starting your Amazon purchase here.